Home   Weather   Iași   Past weeks
Flag for Romania

Past Weather in Iași, Romania — Yesterday and Last 2 Weeks

Now
68 °F

Passing clouds.


Feels Like: 68 °F
Forecast: 74 / 57 °F
Wind: 7 mph from Northwest

Location: Iasi Airport

Current Time: May 24, 2019 at 12:12:49 pm

Latest Report: May 24, 2019 at 11:30 am


Visibility: N/A

Pressure: 29.83 "Hg

Humidity: 64%

Dew Point: 55 °F

Location of IașiLocation

Past Weather in Iași — Graph

°F

Iași Temperature Yesterday

Maximum temperature yesterday: 75 °F (at 1:00 pm)
Minimum temperature yesterday: 55 °F (at 2:30 am)
Average temperature yesterday: 66 °F

High & Low Weather Summary for the Past Weeks

 TemperatureHumidityPressure
High79 °F (May 19, 5:00 pm)100% (May 19, 5:30 am)30.21 "Hg (May 19, 5:30 am)
Low45 °F (May 10, 4:30 am)31% (May 13, 4:30 pm)29.71 "Hg (May 9, 11:30 pm)
Average62 °F70%29.89 "Hg
* Reported May 9 11:00 am — May 24 11:00 am, Iași. Weather by CustomWeather, © 2019

Note: Actual official high and low records may vary slightly from our data, if they occured in-between our weather recording intervals... More about our weather records

Advertising

Iași Weather History for the Previous 24 Hours

Scroll right to see more
 ConditionsComfort  
Time TempWeatherWind HumidityBarometerVisibility
11:00 am
Fri, May 24
68 °FPassing clouds.8 mph69%29.83 "HgN/A
10:30 am68 °FPassing clouds.8 mph64%29.83 "HgN/A
10:00 am66 °FSunny.8 mph73%29.80 "Hg10 mi
9:30 am64 °FPassing clouds.5 mph73%29.83 "HgN/A
9:00 am63 °FPassing clouds.8 mph77%29.80 "HgN/A
8:30 am63 °FSunny.7 mph77%29.80 "Hg10 mi
8:00 am61 °FSunny.7 mph83%29.80 "Hg10 mi
7:30 am61 °FSunny.7 mph83%29.80 "Hg10 mi
7:00 am59 °FPassing clouds.5 mph82%29.80 "HgN/A
6:30 am59 °FPassing clouds.5 mph82%29.80 "HgN/A
6:00 am57 °FSunny.7 mph82%29.80 "Hg10 mi
5:30 am57 °FSunny.5 mph82%29.80 "Hg10 mi
5:00 am57 °FClear.3 mph82%29.80 "Hg10 mi
4:30 am57 °FClear.6 mph82%29.80 "Hg10 mi
4:00 am57 °FPassing clouds.5 mph82%29.80 "HgN/A
3:30 am59 °FClear.5 mph77%29.83 "Hg10 mi
3:00 am59 °FClear.6 mph77%29.83 "Hg10 mi
2:30 am59 °FClear.5 mph77%29.83 "Hg10 mi
2:00 am59 °FClear.2 mph77%29.80 "Hg10 mi
1:30 am59 °FClear.3 mph77%29.83 "Hg10 mi
1:00 am59 °FClear.3 mph77%29.83 "Hg10 mi
12:30 am61 °FClear.3 mph72%29.83 "Hg10 mi
12:00 am61 °FClear.3 mph72%29.83 "Hg10 mi
11:30 pm
Thu, May 23
61 °FClear.2 mph77%29.80 "Hg10 mi
11:00 pm63 °FClear.5 mph68%29.80 "Hg10 mi
10:30 pm63 °FClear.6 mph73%29.80 "Hg10 mi
10:00 pm64 °FClear.6 mph64%29.80 "Hg10 mi
9:30 pm64 °FClear.7 mph64%29.80 "Hg10 mi
9:00 pm64 °FClear.8 mph64%29.80 "Hg10 mi
8:30 pm68 °FPassing clouds.6 mph56%29.77 "HgN/A
8:00 pm70 °FPassing clouds.8 mph53%29.77 "HgN/A
7:30 pm73 °FPassing clouds.5 mph47%29.77 "HgN/A
7:00 pm75 °FPassing clouds.5 mph41%29.77 "HgN/A
6:30 pm75 °FPassing clouds.6 mph41%29.77 "HgN/A
6:00 pm73 °FPassing clouds.5 mph44%29.77 "HgN/A
5:30 pm73 °FPassing clouds.3 mph47%29.77 "HgN/A
5:00 pm73 °FPassing clouds.5 mph44%29.77 "HgN/A
4:30 pm75 °FPassing clouds.5 mph39%29.77 "HgN/A
4:00 pm75 °FPassing clouds.5 mph39%29.77 "HgN/A
3:30 pm75 °FSunny.1 mph39%29.80 "Hg10 mi
3:00 pm73 °FPassing clouds.5 mph41%29.80 "HgN/A
2:30 pm73 °FSunny.2 mph41%29.80 "Hg10 mi
2:00 pm75 °FSunny.2 mph39%29.80 "Hg10 mi
1:30 pm73 °FSunny.2 mph41%29.80 "Hg10 mi
1:00 pm75 °FSunny.2 mph41%29.80 "Hg10 mi
12:30 pm73 °FSunny.1 mph41%29.80 "Hg10 mi
12:00 pm72 °FPassing clouds.6 mph44%29.80 "HgN/A
Weather by CustomWeather, © 2019

See weather overview